Regional Weather Roundup
Issued by NWS

Home | Current Version | Previous Version | Graphics & Text | Print | Product List | Glossary On
Versions: 1 2 3 4 5 6 7 8 9 10 11 12 13 14 15 16 17 18 19 20 21 22 23 24 25 26 27 28 29 30 31 32 33 34 35 36 37 38 39 40 41 42 43 44 45 46 47 48 49 50
000
ASUS43 KIND 171609
RWRIN

WEATHER ROUNDUP FOR INDIANA
NATIONAL WEATHER SERVICE INDIANAPOLIS IN
1200 PM EDT WED SEP 17 2014

NOTE: "FAIR" INDICATES FEW OR NO CLOUDS BELOW 12,000 FEET WITH NO
SIGNIFICANT WEATHER AND/OR OBSTRUCTIONS TO VISIBILITY.

* - STATION DOES NOT REPORT WEATHER SUCH AS PRECIPITATION OR FOG.

+ - STATION NOT QUALITY CONTROLLED BY THE NATIONAL WEATHER SERVICE.
    USE DATA WITH CAUTION...ESPECIALLY DEWPOINT AND RELATIVE
    HUMIDITY OBSERVATIONS.

INZ001>003-010>013-019-020-171700-
NORTHWEST INDIANA

CITY           SKY/WX    TMP DP  RH WIND       PRES   REMARKS
GARY /AIRPORT/ MOSUNNY   66  45  45 MISG      30.05S
KNOX *+        SUNNY     63  48  58 W6        30.03S
MICHIGAN CITY+ MOSUNNY   63  41  45 CALM      30.05R
RENSSELAER +   MOSUNNY   64  54  68 SE5       30.05S
VALPARAISO     SUNNY     64  49  57 W5        30.05S

$$

LMZ046-743>745-171700-
SOUTHERN LAKE MICHIGAN

STATION/POSITION TIME  TEMP WIND        PRES
                       AIR  DIR/SP/G
                 (UTC) (F)  (DEG/KT/KT) (MB)
MICHIGAN CITY    1600   62  260/  6/  7   N/A

$$

INZ004-005-014>016-021>024-171700-
NORTH CENTRAL INDIANA

CITY           SKY/WX    TMP DP  RH WIND       PRES   REMARKS
ELKHART        MOSUNNY   63  46  55 S5        30.05S
GOSHEN         PTSUNNY   63  47  55 S7        30.04F
LOGANSPORT +   MOSUNNY   63  45  51 S7        30.06S
PERU/GRISSOM   SUNNY     62  50  65 VRB2      30.05S
ROCHESTER +    MOSUNNY   64  46  52 CALM      30.05S
SOUTH BEND     SUNNY     64  46  52 VRB3      30.04F
WARSAW +       SUNNY     61  50  67 SW3       30.04F

$$

INZ006>009-017-018-025>027-171700-
NORTHEAST INDIANA

CITY           SKY/WX    TMP DP  RH WIND       PRES   REMARKS
ANGOLA *+      MOSUNNY   63  46  55 SW8       30.04S
AUBURN +       MOSUNNY   64  45  48 S3        30.05F
FORT WAYNE     PTSUNNY   61  54  77 S3        30.06F
HUNTINGTON +   PTSUNNY   60  56  88 SW3       30.04F

$$

INZ028-029-035-036-043>045-051>053-171700-
WEST CENTRAL INDIANA

CITY           SKY/WX    TMP DP  RH WIND       PRES   REMARKS
GREENCASTLE +  MOSUNNY   61  50  67 S5        30.06S
LAFAYETTE      SUNNY     62  53  72 VRB3      30.05S
TERRE HAUTE    MOSUNNY   62  51  67 CALM      30.07R

$$

INZ030>032-037>040-046>048-054>057-064-065-171700-
CENTRAL INDIANA

CITY           SKY/WX    TMP DP  RH WIND       PRES   REMARKS
ANDERSON       PTSUNNY   61  48  63 SE6       30.07S
CP ATTERBURY + PTSUNNY   59  50  72 SE5       30.08S
FRANKFORT +    MOSUNNY   65  50  60 CALM      30.06S
INDIANAPOLIS   PTSUNNY   61  49  64 SE7       30.05S
-EAGLE CREEK   PTSUNNY   62  47  57 S3        30.05S
KOKOMO *+      PTSUNNY   63  48  59 SW3       30.05S
MARION +       MOSUNNY   62  48  60 S6        30.06R
MT COMFORT *+  MOSUNNY   61  43  51 SE3       30.06S
SHELBYVILLE    PTSUNNY   63  49  60 S6        30.05F
ZIONSVILLE +   SUNNY     63  49  59 SW3       30.06S

$$

INZ033-034-041-042-049-050-058-059-171700-
EAST CENTRAL INDIANA

CITY           SKY/WX    TMP DP  RH WIND       PRES   REMARKS
MUNCIE         PTSUNNY   62  49  62 N3        30.05F

$$

INZ060-061-067>069-081>083-085>088-171700-
SOUTHWEST INDIANA

CITY           SKY/WX    TMP DP  RH WIND       PRES   REMARKS
EVANSVILLE     MOSUNNY   63  51  65 SE10      30.03F
WASHINGTON +   PTSUNNY   64  52  66 E7        30.04F

$$

INZ062-063-066-070>080-084-089>092-171700-
SOUTH CENTRAL AND SOUTHEAST INDIANA

CITY           SKY/WX    TMP DP  RH WIND       PRES   REMARKS
BLOOMINGTON    MOSUNNY   60  49  66 SE6       30.06F
NORTH VERNON + CLOUDY    61  57  88 E5        30.08S

$$



USA.gov is the U.S. government's official web portal to all federal, state and local government web resources and services.